TimeMDT,TemperatureF,Dew PointF,Humidity,Sea Level PressureIn,VisibilityMPH,Wind Direction,Wind SpeedMPH,Gust SpeedMPH,PrecipitationIn,Events,Conditions,WindDirDegrees,DateUTC
12:00 AM,31,,,30.20,9,NW,3.5,,,,,310,2013-07-28 06:00:00
12:00 AM,32.0,-9999,N/A,30.20,9.0,NW,4.6,-,N/A,,Mostly Cloudy,310,2013-07-28 06:00:00
12:08 AM,32.0,-9999,N/A,30.17,9.0,NW,5.8,-,N/A,,Mostly Cloudy,320,2013-07-28 06:08:00
12:11 AM,32.0,-9999,N/A,30.17,9.0,NW,5.8,-,N/A,,Partly Cloudy,320,2013-07-28 06:11:00
12:13 AM,32.0,-9999,N/A,30.16,9.0,NW,4.6,-,N/A,,Mostly Cloudy,310,2013-07-28 06:13:00
1:00 AM,32.0,-9999,N/A,30.21,9.0,NW,5.8,-,N/A,,Overcast,320,2013-07-28 07:00:00
2:00 AM,32.0,-9999,N/A,30.22,9.0,WNW,9.2,-,N/A,,Overcast,300,2013-07-28 08:00:00
2:02 AM,32.0,-9999,N/A,30.19,9.0,NW,4.6,-,N/A,,Overcast,310,2013-07-28 08:02:00
2:13 AM,32.0,-9999,N/A,30.19,9.0,WNW,9.2,-,N/A,,Overcast,300,2013-07-28 08:13:00
2:56 AM,30.2,-9999,N/A,30.19,5.0,NW,4.6,-,N/A,,Overcast,320,2013-07-28 08:56:00
2:58 AM,30.2,-9999,N/A,30.18,3.0,NW,3.5,-,N/A,,Overcast,320,2013-07-28 08:58:00
2:59 AM,30.2,-9999,N/A,30.18,2.6,NW,3.5,-,N/A,,Overcast,320,2013-07-28 08:59:00
3:00 AM,30,,,30.21,2,NW,3.5,,,,Overcast,320,2013-07-28 09:00:00
3:00 AM,30.2,-9999,N/A,30.21,2.4,NW,3.5,-,N/A,,Overcast,320,2013-07-28 09:00:00
3:07 AM,30.2,-9999,N/A,30.19,2.0,Calm,Calm,-,N/A,,Mostly Cloudy,0,2013-07-28 09:07:00
3:19 AM,30.2,-9999,N/A,30.19,3.0,NW,3.5,-,N/A,,Overcast,310,2013-07-28 09:19:00
3:26 AM,30.2,-9999,N/A,30.19,5.0,WNW,6.9,-,N/A,,Overcast,300,2013-07-28 09:26:00
3:36 AM,30.2,-9999,N/A,30.20,4.0,WNW,2.3,-,N/A,,Overcast,300,2013-07-28 09:36:00
3:45 AM,30.2,-9999,N/A,30.20,9.0,WNW,9.2,-,N/A,,Overcast,300,2013-07-28 09:45:00
4:00 AM,30.2,-9999,N/A,30.22,9.0,NW,2.3,-,N/A,,Overcast,320,2013-07-28 10:00:00
4:08 AM,30.2,-9999,N/A,30.20,7.0,NW,3.5,-,N/A,,Overcast,320,2013-07-28 10:08:00
4:09 AM,30.2,-9999,N/A,30.20,6.0,NW,4.6,-,N/A,,Overcast,320,2013-07-28 10:09:00
4:12 AM,30.2,-9999,N/A,30.20,3.0,NW,3.5,-,N/A,,Overcast,320,2013-07-28 10:12:00
4:26 AM,30.2,-9999,N/A,30.19,3.0,WNW,5.8,-,N/A,,Overcast,300,2013-07-28 10:26:00
4:30 AM,30.2,-9999,N/A,30.19,9.0,NW,4.6,-,N/A,,Overcast,310,2013-07-28 10:30:00
4:54 AM,30.2,-9999,N/A,30.20,9.0,WNW,4.6,-,N/A,,Overcast,300,2013-07-28 10:54:00
4:56 AM,30.2,-9999,N/A,30.20,9.0,WNW,5.8,-,N/A,,Overcast,300,2013-07-28 10:56:00
5:00 AM,30.2,-9999,N/A,30.22,9.0,WNW,2.3,-,N/A,,Overcast,300,2013-07-28 11:00:00
5:10 AM,30.2,-9999,N/A,30.21,7.0,WNW,2.3,-,N/A,,Overcast,300,2013-07-28 11:10:00
5:20 AM,30.2,-9999,N/A,30.21,6.0,NW,2.3,-,N/A,,Overcast,310,2013-07-28 11:20:00
5:25 AM,30.2,-9999,N/A,30.20,7.0,WNW,5.8,-,N/A,,Overcast,290,2013-07-28 11:25:00
5:57 AM,30.2,-9999,N/A,30.20,9.0,WNW,4.6,-,N/A,,Overcast,290,2013-07-28 11:57:00
6:00 AM,30,,,30.22,6,WNW,3.5,,,,Overcast,290,2013-07-28 12:00:00
6:00 AM,30.2,-9999,N/A,30.22,6.0,West,6.9,-,N/A,,Overcast,280,2013-07-28 12:00:00
6:01 AM,30.2,-9999,N/A,30.20,6.0,WNW,5.8,-,N/A,,Overcast,290,2013-07-28 12:01:00
7:00 AM,30.2,-9999,N/A,30.22,3.0,WNW,6.9,-,N/A,,Overcast,290,2013-07-28 13:00:00
7:17 AM,30.2,-9999,N/A,30.20,9.0,WNW,4.6,-,N/A,,Overcast,290,2013-07-28 13:17:00
8:00 AM,30.2,-9999,N/A,30.22,9.0,WNW,3.5,-,N/A,,Overcast,290,2013-07-28 14:00:00
8:15 AM,30.2,-9999,N/A,30.19,3.0,WNW,2.3,-,N/A,,Overcast,290,2013-07-28 14:15:00
8:33 AM,30.2,-9999,N/A,30.18,1.4,West,3.5,-,N/A,,Clear,270,2013-07-28 14:33:00
8:43 AM,30.2,-9999,N/A,30.18,3.5,Calm,Calm,-,N/A,,Clear,0,2013-07-28 14:43:00
9:00 AM,29,,,30.22,6,SW,5.8,,,,Overcast,230,2013-07-28 15:00:00
9:00 AM,30.2,-9999,N/A,30.22,6.0,WSW,4.6,-,N/A,,Overcast,240,2013-07-28 15:00:00
9:06 AM,30.2,-9999,N/A,30.18,2.6,WSW,4.6,-,N/A,,Overcast,240,2013-07-28 15:06:00
9:29 AM,30.2,-9999,N/A,30.19,9.0,SW,6.9,-,N/A,,Overcast,220,2013-07-28 15:29:00
9:47 AM,30.2,-9999,N/A,30.18,2.8,SSW,5.8,-,N/A,,Overcast,210,2013-07-28 15:47:00
9:59 AM,30.2,-9999,N/A,30.19,4.0,SW,5.8,-,N/A,,Overcast,220,2013-07-28 15:59:00
10:00 AM,30.2,-9999,N/A,30.22,5.0,SW,4.6,-,N/A,,Overcast,220,2013-07-28 16:00:00
10:18 AM,30.2,-9999,N/A,30.17,9.0,SW,6.9,-,N/A,,Overcast,220,2013-07-28 16:18:00
10:19 AM,30.2,-9999,N/A,30.17,9.0,SW,8.1,-,N/A,,Overcast,220,2013-07-28 16:19:00
10:29 AM,30.2,-9999,N/A,30.18,9.0,SSW,6.9,-,N/A,,Overcast,200,2013-07-28 16:29:00
10:48 AM,30.2,-9999,N/A,30.17,9.0,SW,8.1,-,N/A,,Overcast,220,2013-07-28 16:48:00
11:00 AM,32.0,-9999,N/A,30.21,9.0,SSW,6.9,-,N/A,,Overcast,210,2013-07-28 17:00:00
11:29 AM,32.0,-9999,N/A,30.17,9.0,South,6.9,-,N/A,,Overcast,190,2013-07-28 17:29:00
11:38 AM,32.0,-9999,N/A,30.16,9.0,SSW,6.9,-,N/A,,Mostly Cloudy,200,2013-07-28 17:38:00
12:00 PM,32,,,30.19,9,SSW,6.9,,,,Overcast,210,2013-07-28 18:00:00
12:00 PM,32.0,-9999,N/A,30.19,9.0,SSW,5.8,-,N/A,,Overcast,210,2013-07-28 18:00:00
12:19 PM,33.8,-9999,N/A,30.15,9.0,South,4.6,-,N/A,,Overcast,190,2013-07-28 18:19:00
1:00 PM,33.8,-9999,N/A,30.18,9.0,SSW,3.5,-,N/A,,Overcast,200,2013-07-28 19:00:00
2:00 PM,35.6,-9999,N/A,30.15,9.0,SE,3.5,-,N/A,,Overcast,140,2013-07-28 20:00:00
3:00 PM,37,,,30.14,9,ESE,5.8,,,,Overcast,120,2013-07-28 21:00:00
3:00 PM,37.4,-9999,N/A,30.14,9.0,ESE,5.8,-,N/A,,Overcast,120,2013-07-28 21:00:00
3:06 PM,37.4,-9999,N/A,30.12,9.0,ESE,8.1,-,N/A,,Scattered Clouds,120,2013-07-28 21:06:00
4:00 PM,37.4,-9999,N/A,30.11,9.0,ESE,12.7,-,N/A,,Partly Cloudy,120,2013-07-28 22:00:00
5:00 PM,37.4,-9999,N/A,30.10,9.0,ESE,11.5,-,N/A,,Partly Cloudy,120,2013-07-28 23:00:00
6:00 PM,38,,,30.07,9,ESE,16.1,,,,,110,2013-07-29 00:00:00
6:00 PM,37.4,-9999,N/A,30.07,9.0,ESE,16.1,-,N/A,,Partly Cloudy,110,2013-07-29 00:00:00
7:00 PM,37.4,-9999,N/A,30.06,9.0,ESE,20.7,-,N/A,,Scattered Clouds,110,2013-07-29 01:00:00
7:56 PM,37.4,-9999,N/A,30.02,9.0,ESE,17.3,-,N/A,Rain,Light Rain,110,2013-07-29 01:56:00
8:00 PM,37.4,-9999,N/A,30.05,9.0,ESE,19.6,-,N/A,Rain,Light Rain,110,2013-07-29 02:00:00
9:00 PM,37,,,30.02,9,ESE,18.4,,,Rain,Light Rain,110,2013-07-29 03:00:00
9:00 PM,37.4,-9999,N/A,30.02,9.0,ESE,18.4,-,N/A,Rain,Light Rain,110,2013-07-29 03:00:00
10:00 PM,37.4,-9999,N/A,29.99,7.0,ESE,17.3,-,N/A,Rain,Light Rain,110,2013-07-29 04:00:00
10:14 PM,37.4,-9999,N/A,29.95,8.0,ESE,16.1,-,N/A,Rain,Light Rain,110,2013-07-29 04:14:00
11:00 PM,39.2,-9999,N/A,29.95,9.0,ESE,17.3,-,N/A,Rain,Light Rain,120,2013-07-29 05:00:00
11:04 PM,39.2,-9999,N/A,29.93,9.0,ESE,16.1,-,N/A,Rain,Light Rain,110,2013-07-29 05:04:00
11:35 PM,39.2,-9999,N/A,29.91,7.0,ESE,18.4,-,N/A,Rain,Light Rain,120,2013-07-29 05:35:00